星链-6275 (STARLINK-6275 )

导读

STARLINK-6275是美国太空探索技术公司(SpaceX)星链卫星互联网项目的组网卫星,于2023年5月31日发射入轨。星链计划旨在构建覆盖全球的低轨卫星互联网星座,该卫星承担增强全球网络覆盖,提升服务容量与稳定性的任务,属于星链低轨星座部署的一部分,服务全球卫星互联网接入需求。

基本信息
目录编号:
56772
目录名称:
STARLINK-6275
国际标识:
2023-078F
轨道中心:
EARTH
卫星名称:
星链-6275
卫星全名:
星链-6275 (STARLINK-6275 )
卫星状态:
在轨 (已飞行1200 天)
发射日期:
2023-05-31 UTC
国别 :
美国 (US)
星等 :
--
该卫星已列入 空间交会检测服务 Space Conjunction Data Service (SCDS) ,当前飞行风险评估等级: 无高风险
轨道信息
数据来源 国际轨道数据 AOE轨道数据
星历时间 2026-09-12T10:57:25+0800
12小时前
查看轨道信息
2026-09-10T22:00:00+0800
2天前
查看轨道信息
半长轴 6950.202km 6950.188km
偏心率 0.0003579 0.0004049
轨道倾角 69.998° 69.997°
近地点辐角 257.784° 268.444°
升交点赤经 254.366° 258.245°
平近点角 102.292° 67.951°
近地点 569.577km 569.236km
远地点 574.553km 574.866km
周期 96.107分钟 96.107分钟
每日圈数 14.983271 14.983318
详细信息
固有亮度:
5
最大亮度:
2.5
卫星平台:
Starlink v1.5
覆盖范围:
全球
运营商:
太空探索技术公司
运营商所在国:
美国
制造商(研发单位):
太空探索技术公司
制造商所在国:
美国
使用方式:
暂无
卫星简介
星链(Starlink)计划是由太空探索技术公司(SpaceX)提出的一个巨型低轨卫星互联网星座项目,计划在2019年至2024年间在太空搭建由约1.2万颗卫星组成的“星链”网络,其中1584颗将部署在地球上空550千米处的近地轨道,并从2020年开始工作。该卫星仍在工作。
2D轨道图
3D轨道图
轨道高度分析图
轨道倾角分析图
轨道综合分析图
查看轨道综合分析图
交会数据列表
事件ID 空间交会对象 最接近时刻(TCA) 交会距离 交会风险概率(CRP) 交会风险指数(CRI) 操作
CDM_260914-050302-620705-677221
CZ-4 DEB (26207)
2026-09-14T
05:03:20+0000
1.353 km
极远距离
9.055536E-6 低风险 0.54
与全量物体交会距离演化趋势
与全量物体交会风险概率演化趋势